[[{"header":{"parameterUnit":"m.s-1","parameterCategory":1,"la1":30.2991,"la2":30.254,"lo1":-89.0895,"lo2":-89.0444,"dy":0.0017,"dx":0.0017,"nx":28,"ny":28,"refTime":"2023-08-01T09:00:00:Z","depth":0,"parameterNumber":2,"parameterNumberName":"U-component_of_WINDS"},"data":[0,0,0,0,0,0,0,0,0,0,0,0,0,0,0,0,0,0,0,0,0,0,0,0,0,0,0,0,0,0,0,0,0,0,0,0,0,0,0,0,0,0,0,0,0,0,0,0,0,0,0,0,0,0,0,0,0,0,-0.8095,-0.8094,0,-0.7992,-0.7991,-0.799,-0.7937,-0.7937,-0.7937,-0.7937,-0.7828,-0.7826,-0.7823,0,0,0,0,0,0,0,0,0,0,0,0,0,-0.8243,-0.824,-0.8095,-0.8093,-0.8092,-0.7992,-0.7991,-0.799,-0.7937,-0.7937,-0.7937,-0.7937,-0.7829,-0.7826,-0.7823,0,0,0,0,0,0,0,0,0,0,0,0,0,-0.8163,-0.824,-0.8095,-0.8054,-0.8049,-0.7993,-0.7991,-0.7989,-0.7937,-0.7937,-0.7937,-0.7937,-0.783,-0.7826,-0.7822,-0.7797,0,0,-0.7809,-0.7807,0,0,0,0,0,0,0,0,-0.8168,-0.8158,-0.8061,-0.8057,-0.8051,-0.7978,-0.8003,-0.7925,-0.7937,-0.798,-0.7937,-0.7937,-0.7878,-0.787,-0.785,-0.7792,-0.7787,-0.7809,-0.7806,-0.7804,-0.7803,0,0,0,0,0,0,0,-0.8173,-0.8162,-0.8054,-0.806,-0.8054,-0.804,-0.8029,-0.7988,-0.793,-0.7976,-0.7972,-0.7961,-0.7875,-0.7855,-0.7848,-0.7786,-0.7809,-0.7805,-0.7802,-0.7801,-0.7703,-0.7703,0,0,0,0,0,0,-0.8186,-0.8167,-0.8057,-0.8051,-0.8111,-0.8038,-0.8025,-0.8001,-0.7931,-0.792,-0.7961,-0.7959,-0.7862,-0.7853,-0.7844,-0.7811,-0.7804,-0.78,-0.7798,-0.7703,-0.7703,-0.7703,0,0,0,0,0,0,-0.8189,-0.8177,-0.8061,-0.8108,-0.8092,-0.8035,-0.8009,-0.7999,-0.7979,-0.7919,-0.7908,-0.7951,-0.7862,-0.785,-0.781,-0.7806,-0.7798,-0.7794,-0.7703,-0.7703,-0.7703,-0.7744,0,0,0,0,0,0,-0.8194,-0.8178,-0.8168,-0.8108,-0.809,-0.803,-0.8009,-0.7997,-0.7972,-0.7968,-0.7907,-0.7897,-0.7861,-0.7816,-0.7805,-0.78,-0.7791,-0.7703,-0.7703,-0.7703,-0.7743,-0.7746,-0.7748,0,0,0,0,0,-0.8199,-0.8183,-0.8168,-0.8155,-0.8077,-0.803,-0.8019,-0.7979,-0.7972,-0.7962,-0.7924,-0.7899,-0.7809,-0.7813,-0.78,-0.7793,-0.7703,-0.7703,-0.7703,-0.7742,-0.7745,-0.7748,0,0,0,0,0,0,-0.8242,-0.8174,-0.8157,-0.8121,-0.8082,-0.8021,-0.8007,-0.7984,-0.7945,-0.7943,-0.7894,-0.788,-0.7845,-0.7815,-0.7821,-0.7766,-0.7753,-0.7751,-0.7787,-0.779,-0.7792,-0.78,-0.7788,0,0,0,0,0,-0.8248,-0.8217,-0.8158,-0.8132,-0.8113,-0.8064,-0.8042,-0.8015,-0.7972,-0.7954,-0.7913,-0.7872,-0.7834,-0.781,-0.7772,-0.7739,-0.7725,-0.7728,-0.773,-0.7733,-0.7731,-0.7712,-0.7713,-0.7703,-0.7703,-0.7703,0,0,-0.8258,-0.8217,-0.82,-0.814,-0.8106,-0.8074,-0.805,-0.8017,-0.7993,-0.7949,-0.7909,-0.7878,-0.7828,-0.7792,-0.7774,-0.7766,-0.7731,-0.7733,-0.7735,-0.7732,-0.7712,-0.7713,-0.7714,-0.7703,-0.7703,-0.7703,0,0,-0.8262,-0.8227,-0.8202,-0.817,-0.812,-0.8088,-0.8082,-0.8025,-0.8003,-0.7963,-0.7931,-0.7901,-0.7837,-0.7803,-0.7778,-0.7771,-0.7747,-0.776,-0.7773,-0.7755,-0.7756,-0.7756,-0.7755,-0.7755,-0.7759,-0.7759,-0.7759,0,-0.8281,-0.8232,-0.8192,-0.8161,-0.8136,-0.8097,-0.8071,-0.8041,-0.7982,-0.7965,-0.7957,-0.7878,-0.7841,-0.7797,-0.7796,-0.7777,-0.7768,-0.7766,-0.7759,-0.7759,-0.7759,-0.7757,-0.7756,-0.7761,-0.776,-0.776,-0.776,0,-0.8258,-0.8226,-0.8211,-0.8156,-0.8129,-0.8101,-0.8057,-0.8034,-0.801,-0.7978,-0.7939,-0.7894,-0.7847,-0.7835,-0.781,-0.7788,-0.7785,-0.7769,-0.7755,-0.7763,-0.776,-0.7759,-0.7764,-0.7763,-0.7762,-0.7762,0,0,-0.8284,-0.8209,-0.8205,-0.818,-0.8124,-0.8097,-0.8068,-0.8024,-0.8006,-0.7966,-0.794,-0.7889,-0.7874,-0.7846,-0.7817,-0.7802,-0.7801,-0.7788,-0.7786,-0.7792,-0.7774,-0.7787,-0.7786,-0.7785,-0.7784,-0.7784,-0.7779,0,-0.8279,-0.8226,-0.819,-0.815,-0.812,-0.8084,-0.8058,-0.8021,-0.7991,-0.796,-0.7927,-0.7891,-0.7875,-0.7858,-0.7841,-0.7804,-0.7796,-0.7804,-0.776,-0.7759,-0.7773,-0.7785,-0.7797,-0.7794,-0.7777,-0.7777,-0.7777,0,-0.8266,-0.823,-0.8188,-0.8137,-0.8123,-0.8101,-0.8058,-0.8029,-0.7987,-0.7966,-0.7936,-0.7907,-0.7875,-0.7865,-0.782,-0.7826,-0.7806,-0.7786,-0.7784,-0.7778,-0.7768,-0.7779,-0.7792,-0.7792,-0.7775,-0.7775,-0.7775,0,-0.8289,-0.823,-0.8198,-0.8178,-0.8117,-0.8103,-0.8077,-0.8034,-0.801,-0.7973,-0.7958,-0.7917,-0.7894,-0.7863,-0.7824,-0.7821,-0.7783,-0.777,-0.7765,-0.7766,-0.7758,-0.7759,-0.7768,-0.7746,-0.7746,-0.7746,-0.7746,0,-0.8287,-0.8263,-0.8208,-0.8188,-0.816,-0.8119,-0.8093,-0.8063,-0.8026,-0.8,-0.7966,-0.7942,-0.7892,-0.7862,-0.7832,-0.78,-0.7789,-0.7772,-0.7764,-0.7775,-0.7777,-0.776,-0.776,-0.7746,-0.7746,-0.7746,-0.7746,0,-0.8308,-0.827,-0.8233,-0.818,-0.8166,-0.8148,-0.8102,-0.8081,-0.8051,-0.8018,-0.8008,-0.7959,-0.7923,-0.7881,-0.783,-0.7809,-0.778,-0.7768,-0.7794,-0.779,-0.7788,-0.7789,-0.7786,-0.7784,-0.7764,-0.7764,-0.7764,0,-0.8309,-0.829,-0.8236,-0.8217,-0.8192,-0.8161,-0.8138,-0.8097,-0.8074,-0.8026,-0.8011,-0.7972,-0.7939,-0.7882,-0.7841,-0.7802,-0.779,-0.7792,-0.7783,-0.7796,-0.779,-0.7792,-0.779,-0.7794,-0.7794,-0.7795,-0.7795,0,-0.8316,-0.8299,-0.8267,-0.8229,-0.8202,-0.817,-0.8136,-0.8122,-0.8075,-0.8051,-0.8014,-0.7988,-0.7938,-0.7899,-0.7856,-0.7828,-0.7804,-0.7798,-0.7795,-0.7806,-0.7822,-0.7814,-0.7801,-0.7798,-0.7798,-0.7798,-0.7797,-0.7797,-0.8327,-0.8309,-0.8269,-0.8235,-0.8206,-0.8176,-0.8154,-0.8122,-0.8091,-0.8047,-0.8025,-0.7989,-0.7948,-0.7888,-0.7862,-0.7832,-0.7824,-0.7819,-0.7818,-0.7818,-0.7821,-0.7828,-0.7824,-0.7824,-0.7824,-0.7824,-0.7823,0,-0.8332,-0.8305,-0.8274,-0.8229,-0.8203,-0.8184,-0.8147,-0.8125,-0.8094,-0.8059,-0.8028,-0.7986,-0.795,-0.7908,-0.7869,-0.7853,-0.7841,-0.7844,-0.7845,-0.7839,-0.783,-0.7837,-0.7855,-0.7855,-0.7855,-0.7855,-0.7855,-0.7855,-0.8331,-0.83,-0.8279,-0.8234,-0.8206,-0.8172,-0.8152,-0.8124,-0.8096,-0.8052,-0.8022,-0.7996,-0.7958,-0.7916,-0.7882,-0.7871,-0.7858,-0.7865,-0.785,-0.7842,-0.784,-0.7837,-0.7843,-0.7862,-0.7862,-0.7862,-0.7862,-0.7862]},{"header":{"parameterUnit":"m.s-1","parameterCategory":1,"la1":30.2991,"la2":30.254,"lo1":-89.0895,"lo2":-89.0444,"dy":0.0017,"dx":0.0017,"nx":28,"ny":28,"refTime":"2023-08-01T09:00:00:Z","depth":0,"parameterNumber":3,"parameterNumberName":"V-component_of_WINDS"},"data":[0,0,0,0,0,0,0,0,0,0,0,0,0,0,0,0,0,0,0,0,0,0,0,0,0,0,0,0,0,0,0,0,0,0,0,0,0,0,0,0,0,0,0,0,0,0,0,0,0,0,0,0,0,0,0,0,0,0,3.6161,3.6161,0,3.6115,3.6115,3.6114,3.6126,3.6127,3.6128,3.6129,3.6076,3.6073,3.6071,0,0,0,0,0,0,0,0,0,0,0,0,0,3.6254,3.6252,3.6161,3.6161,3.616,3.6116,3.6115,3.6114,3.6126,3.6127,3.6128,3.6129,3.6076,3.6074,3.6071,0,0,0,0,0,0,0,0,0,0,0,0,0,3.6211,3.6251,3.6161,3.6161,3.616,3.6116,3.6115,3.6114,3.6126,3.6127,3.6129,3.613,3.6077,3.6074,3.6071,3.6022,0,0,3.606,3.6059,0,0,0,0,0,0,0,0,3.6213,3.6208,3.6162,3.6161,3.616,3.6128,3.6128,3.6083,3.6126,3.6139,3.6129,3.6131,3.6092,3.6087,3.6075,3.6019,3.6017,3.606,3.6058,3.6056,3.6055,0,0,0,0,0,0,0,3.6216,3.621,3.6143,3.6161,3.616,3.6161,3.6157,3.6119,3.6108,3.6138,3.6139,3.6133,3.6091,3.6079,3.6074,3.6016,3.606,3.6057,3.6055,3.6053,3.5916,3.5915,0,0,0,0,0,0,3.6221,3.6212,3.6144,3.6142,3.6191,3.6158,3.6153,3.6137,3.6108,3.6105,3.6132,3.6134,3.6084,3.6078,3.6072,3.6012,3.6056,3.6053,3.6051,3.5918,3.5916,3.5914,0,0,0,0,0,0,3.6223,3.6215,3.6146,3.6177,3.6169,3.6155,3.6137,3.6135,3.6122,3.6104,3.6101,3.6121,3.6085,3.6077,3.6034,3.601,3.6052,3.6048,3.592,3.5917,3.5915,3.5891,0,0,0,0,0,0,3.6225,3.6215,3.6198,3.6177,3.6167,3.6111,3.6135,3.6133,3.6117,3.6119,3.6093,3.609,3.6085,3.6039,3.6031,3.6006,3.6046,3.5922,3.5919,3.5916,3.5894,3.5888,3.5883,0,0,0,0,0,3.6228,3.6192,3.6197,3.6188,3.6145,3.6109,3.6103,3.61,3.6115,3.6096,3.6085,3.6091,3.6015,3.6035,3.6025,3.5999,3.5923,3.5919,3.5916,3.5896,3.5889,3.5883,0,0,0,0,0,0,3.6208,3.6189,3.6194,3.615,3.6131,3.6112,3.6088,3.6093,3.6068,3.6071,3.6066,3.606,3.6016,3.6004,3.6026,3.595,3.5971,3.5965,3.5959,3.5952,3.5947,3.595,3.6043,0,0,0,0,0,3.6199,3.6173,3.6157,3.6119,3.611,3.6101,3.6085,3.6084,3.6064,3.6056,3.6041,3.6019,3.599,3.5971,3.5943,3.5893,3.5886,3.587,3.5865,3.5861,3.5855,3.5826,3.5818,3.5902,3.5902,3.5902,0,0,3.6178,3.6165,3.6148,3.6115,3.6101,3.6072,3.6094,3.6063,3.6041,3.605,3.6009,3.5998,3.5973,3.5926,3.5905,3.5914,3.5831,3.5856,3.5853,3.585,3.5822,3.5814,3.5807,3.59,3.59,3.5901,0,0,3.6126,3.6114,3.6081,3.6067,3.6046,3.604,3.6032,3.6011,3.6005,3.5964,3.597,3.5943,3.5894,3.5876,3.586,3.5803,3.5807,3.5794,3.5765,3.5737,3.573,3.5724,3.5701,3.5694,3.5789,3.5789,3.5789,0,3.6102,3.6062,3.6063,3.6032,3.6016,3.6026,3.5991,3.5976,3.5946,3.5934,3.5946,3.5885,3.5869,3.5817,3.5803,3.5791,3.578,3.5795,3.5731,3.5725,3.572,3.5698,3.569,3.5787,3.5787,3.5787,3.5788,0,3.6034,3.6005,3.5981,3.5954,3.5936,3.5903,3.5897,3.5878,3.5879,3.5871,3.5829,3.5811,3.5779,3.5768,3.5768,3.5716,3.5722,3.5733,3.5754,3.571,3.569,3.5682,3.5785,3.5785,3.5786,3.5786,0,0,3.5965,3.594,3.5931,3.5918,3.5896,3.5873,3.584,3.5812,3.5795,3.5774,3.5745,3.5704,3.5714,3.5696,3.5694,3.567,3.5623,3.5684,3.5683,3.5671,3.5563,3.5553,3.5543,3.5627,3.5626,3.5625,3.5564,0,3.5909,3.5854,3.5854,3.5801,3.5774,3.5783,3.5754,3.5736,3.5728,3.5703,3.5694,3.5664,3.5681,3.567,3.5646,3.5634,3.5601,3.5639,3.5597,3.5596,3.5601,3.5533,3.5522,3.5466,3.5556,3.5555,3.5554,0,3.5837,3.5816,3.5761,3.5743,3.5731,3.5705,3.5679,3.5655,3.5635,3.5631,3.5612,3.5614,3.5578,3.5602,3.5552,3.5578,3.5561,3.5552,3.555,3.5544,3.557,3.5522,3.5448,3.5439,3.5542,3.5543,3.5543,0,3.579,3.5748,3.5709,3.5699,3.5677,3.5658,3.5648,3.5629,3.5612,3.5588,3.5576,3.5549,3.5532,3.551,3.5504,3.5522,3.5453,3.5477,3.5446,3.5446,3.5429,3.5429,3.5348,3.5422,3.5422,3.5422,3.5423,0,3.5726,3.5692,3.5688,3.5664,3.5625,3.5625,3.5586,3.5577,3.556,3.5533,3.554,3.5514,3.5509,3.5481,3.5476,3.5434,3.5427,3.5421,3.5419,3.5419,3.5419,3.5406,3.5408,3.542,3.5421,3.5421,3.5422,0,3.5666,3.5662,3.5621,3.5604,3.5599,3.5571,3.5556,3.5532,3.5526,3.5491,3.5483,3.5472,3.544,3.5433,3.5394,3.5391,3.534,3.5344,3.5348,3.5347,3.5316,3.5318,3.5221,3.5207,3.5293,3.5292,3.5292,0,3.5624,3.5598,3.558,3.5563,3.5552,3.5525,3.5508,3.5507,3.5489,3.5464,3.5442,3.5412,3.5387,3.5335,3.5322,3.5292,3.5294,3.5262,3.5289,3.5289,3.529,3.5291,3.5287,3.5256,3.5255,3.5254,3.5253,0,3.5551,3.555,3.5527,3.5502,3.5482,3.5462,3.5443,3.5428,3.5425,3.5403,3.5372,3.5353,3.5314,3.5283,3.5253,3.524,3.5245,3.5246,3.5236,3.5234,3.5236,3.5232,3.5331,3.5247,3.5248,3.5248,3.5248,3.5249,3.5497,3.5474,3.5457,3.543,3.5416,3.5398,3.5375,3.5367,3.5341,3.5311,3.5312,3.5277,3.5256,3.5217,3.5203,3.5174,3.5183,3.5171,3.5167,3.5163,3.5159,3.5244,3.5169,3.5169,3.5169,3.5169,3.5169,0,3.5421,3.5411,3.5387,3.5361,3.5339,3.5349,3.5329,3.5309,3.5279,3.5261,3.5237,3.52,3.5169,3.5155,3.5125,3.5104,3.5105,3.5096,3.5096,3.5092,3.5154,3.5164,3.5095,3.5095,3.5095,3.5095,3.5095,3.5095,3.5379,3.534,3.5338,3.5292,3.5282,3.5249,3.5236,3.5219,3.5205,3.5164,3.5139,3.5131,3.5114,3.5082,3.5054,3.5051,3.5038,3.5027,3.5024,3.5081,3.5088,3.5095,3.5104,3.5025,3.5025,3.4965,3.4964,3.4964]}]]